| time (UTC) | temp F | wind direction | speed MPH | gust MPH | rain 1hr in | rain 24hr in | rain mn in | humidity % | barometer mb |
| 20260502130505 | 69 | 96 | 4.0 | 10.0 | 0.00 | 0.00 | 0.00 | 59 | 1013.2 |
| 20260502123505 | 71 | 103 | 2.0 | 7.0 | 0.00 | 0.00 | 0.00 | 57 | 1013.6 |
| 20260502122505 | 70 | 136 | 4.0 | 9.0 | 0.00 | 0.00 | 0.00 | 57 | 1013.8 |
| 20260502122005 | 70 | 121 | 4.0 | 9.0 | 0.00 | 0.00 | 0.00 | 58 | 1013.9 |
| 20260502121505 | 70 | 92 | 4.0 | 8.0 | 0.00 | 0.00 | 0.00 | 57 | 1014.0 |
| 20260502120505 | 70 | 135 | 4.0 | 8.0 | 0.00 | 0.00 | 0.00 | 55 | 1014.2 |
| 20260502115505 | 70 | 154 | 2.0 | 7.0 | 0.00 | 0.00 | 0.00 | 55 | 1014.4 |
| 20260502115005 | 71 | 145 | 2.0 | 7.0 | 0.00 | 0.00 | 0.00 | 55 | 1014.4 |
| 20260502114005 | 70 | 65 | 4.0 | 8.0 | 0.00 | 0.00 | 0.00 | 58 | 1014.4 |
| 20260502113505 | 69 | 81 | 5.0 | 9.0 | 0.00 | 0.00 | 0.00 | 59 | 1014.5 |
| 20260502113005 | 69 | 91 | 2.0 | 9.0 | 0.00 | 0.00 | 0.00 | 58 | 1014.5 |
| 20260502112006 | 69 | 72 | 2.0 | 7.0 | 0.00 | 0.00 | 0.00 | 57 | 1014.6 |
| 20260502111506 | 69 | 59 | 2.0 | 7.0 | 0.00 | 0.00 | 0.00 | 60 | 1014.7 |
| 20260502111005 | 68 | 91 | 2.0 | 7.0 | 0.00 | 0.00 | 0.00 | 61 | 1014.8 |
| 20260502110505 | 68 | 155 | 2.0 | 7.0 | 0.00 | 0.00 | 0.00 | 62 | 1014.9 |
| 20260502110006 | 67 | 125 | 2.0 | 7.0 | 0.00 | 0.00 | 0.00 | 62 | 1015.1 |
| 20260502105505 | 66 | 47 | 2.0 | 6.0 | 0.00 | 0.00 | 0.00 | 62 | 1015.1 |
| 20260502105005 | 66 | 65 | 1.0 | 6.0 | 0.00 | 0.00 | 0.00 | 63 | 1015.2 |
| 20260502104505 | 66 | 113 | 1.0 | 3.0 | 0.00 | 0.00 | 0.00 | 65 | 1015.3 |
| 20260502103505 | 65 | 34 | 1.0 | 5.0 | 0.00 | 0.00 | 0.00 | 68 | 1015.6 |
| 20260502103006 | 65 | 78 | 2.0 | 6.0 | 0.00 | 0.00 | 0.00 | 68 | 1015.6 |
| 20260502102505 | 64 | 106 | 2.0 | 7.0 | 0.00 | 0.00 | 0.00 | 69 | 1015.7 |
| 20260502102006 | 64 | 99 | 2.0 | 7.0 | 0.00 | 0.00 | 0.00 | 70 | 1015.8 |
| 20260502101506 | 64 | 83 | 2.0 | 6.0 | 0.00 | 0.00 | 0.00 | 70 | 1015.9 |
| 20260502101005 | 64 | 90 | 1.0 | 6.0 | 0.00 | 0.00 | 0.00 | 70 | 1016.0 |
| 20260502100505 | 63 | 150 | 1.0 | 6.0 | 0.00 | 0.00 | 0.00 | 73 | 1016.0 |
| 20260502091505 | 58 | 70 | 2.0 | 6.0 | 0.00 | 0.00 | 0.00 | 82 | 1016.5 |
| 20260502091005 | 58 | 115 | 1.0 | 5.0 | 0.00 | 0.00 | 0.00 | 83 | 1016.6 |
| 20260502090505 | 57 | 134 | 1.0 | 5.0 | 0.00 | 0.00 | 0.00 | 83 | 1016.6 |
| 20260502071506 | 50 | 0 | 0.0 | 2.0 | 0.00 | 0.00 | 0.00 | 95 | 1017.5 |
| 20260502071006 | 50 | 98 | 1.0 | 2.0 | 0.00 | 0.00 | 0.00 | 95 | 1017.5 |
| 20260502070505 | 50 | 90 | 1.0 | 2.0 | 0.00 | 0.00 | 0.00 | 96 | 1017.6 |
| 20260502070005 | 49 | 75 | 1.0 | 3.0 | 0.00 | 0.00 | 0.00 | 95 | 1017.5 |
| 20260502065505 | 49 | 63 | 1.0 | 3.0 | 0.00 | 0.00 | 0.00 | 95 | 1017.4 |
| 20260502064505 | 49 | 35 | 1.0 | 2.0 | 0.00 | 0.00 | 0.00 | 95 | 1017.3 |
| 20260502064005 | 49 | 43 | 1.0 | 2.0 | 0.00 | 0.00 | 0.00 | 96 | 1017.3 |
| 20260502063505 | 49 | 48 | 1.0 | 3.0 | 0.00 | 0.00 | 0.00 | 96 | 1017.3 |
| 20260502063005 | 49 | 0 | 0.0 | 3.0 | 0.00 | 0.00 | 0.00 | 95 | 1017.4 |
| 20260502062505 | 49 | 0 | 0.0 | 2.0 | 0.00 | 0.00 | 0.00 | 95 | 1017.4 |
| 20260502061505 | 49 | 0 | 0.0 | 3.0 | 0.00 | 0.00 | 0.00 | 96 | 1017.4 |
| 20260502060505 | 49 | 0 | 0.0 | 2.0 | 0.00 | 0.00 | 0.00 | 96 | 1017.5 |
| 20260502055505 | 49 | 0 | 0.0 | 2.0 | 0.00 | 0.00 | 0.00 | 96 | 1017.5 |
| 20260502055005 | 49 | 0 | 0.0 | 2.0 | 0.00 | 0.00 | 0.00 | 96 | 1017.5 |
| 20260502054505 | 49 | 127 | 1.0 | 2.0 | 0.00 | 0.00 | 0.00 | 96 | 1017.5 |
| 20260502054005 | 49 | 0 | 0.0 | 2.0 | 0.00 | 0.00 | 0.00 | 96 | 1017.5 |
| 20260502053005 | 49 | 0 | 0.0 | 2.0 | 0.00 | 0.00 | 0.00 | 96 | 1017.4 |
| 20260502052505 | 49 | 0 | 0.0 | 2.0 | 0.00 | 0.00 | 0.00 | 96 | 1017.5 |
| 20260502052005 | 49 | 179 | 1.0 | 3.0 | 0.00 | 0.00 | 0.00 | 96 | 1017.5 |
| 20260502051505 | 48 | 170 | 1.0 | 3.0 | 0.00 | 0.00 | 0.00 | 95 | 1017.5 |
| 20260502051005 | 49 | 143 | 1.0 | 3.0 | 0.00 | 0.00 | 0.00 | 95 | 1017.5 |
| 20260502050505 | 49 | 122 | 1.0 | 3.0 | 0.00 | 0.00 | 0.00 | 95 | 1017.5 |
| 20260502045505 | 49 | 0 | 0.0 | 1.0 | 0.00 | 0.00 | 0.00 | 96 | 1017.4 |
| 20260502045005 | 49 | 0 | 0.0 | 1.0 | 0.00 | 0.00 | 0.00 | 96 | 1017.6 |
| 20260502044505 | 49 | 0 | 0.0 | 1.0 | 0.00 | 0.00 | 0.00 | 95 | 1017.5 |
| 20260502044005 | 49 | 0 | 0.0 | 1.0 | 0.00 | 0.00 | 0.00 | 95 | 1017.5 |
| 20260502043005 | 48 | 0 | 0.0 | 1.0 | 0.00 | 0.00 | 0.00 | 95 | 1017.5 |
| 20260502042505 | 48 | 0 | 0.0 | 2.0 | 0.00 | 0.00 | 0.00 | 95 | 1017.5 |
| 20260502042005 | 49 | 0 | 0.0 | 2.0 | 0.00 | 0.00 | 0.00 | 95 | 1017.6 |
| 20260502041505 | 49 | 0 | 0.0 | 1.0 | 0.00 | 0.00 | 0.00 | 95 | 1017.5 |
| 20260502041005 | 49 | 0 | 0.0 | 1.0 | 0.00 | 0.00 | 0.00 | 95 | 1017.6 |
| 20260502040005 | 49 | 0 | 0.0 | 2.0 | 0.00 | 0.00 | 0.00 | 95 | 1017.6 |
| 20260502034505 | 49 | 0 | 0.0 | 2.0 | 0.00 | 0.00 | 0.00 | 95 | 1017.6 |
| 20260502034005 | 49 | 0 | 0.0 | 2.0 | 0.00 | 0.00 | 0.00 | 95 | 1017.6 |
| 20260502033505 | 49 | 0 | 0.0 | 2.0 | 0.00 | 0.00 | 0.00 | 95 | 1017.7 |
| 20260502033005 | 49 | 0 | 0.0 | 2.0 | 0.00 | 0.00 | 0.00 | 95 | 1017.7 |
| 20260502032005 | 49 | 0 | 0.0 | 2.0 | 0.00 | 0.00 | 0.00 | 95 | 1017.9 |
| 20260502031505 | 49 | 0 | 0.0 | 3.0 | 0.00 | 0.00 | 0.00 | 95 | 1017.9 |
| 20260502031005 | 49 | 236 | 1.0 | 3.0 | 0.00 | 0.00 | 0.00 | 95 | 1017.9 |
| 20260502030506 | 49 | 236 | 1.0 | 5.0 | 0.00 | 0.00 | 0.00 | 95 | 1018.0 |
| 20260502030005 | 49 | 236 | 2.0 | 5.0 | 0.00 | 0.00 | 0.00 | 95 | 1018.0 |
| 20260502025505 | 50 | 242 | 2.0 | 6.0 | 0.00 | 0.00 | 0.00 | 95 | 1018.0 |
| 20260502025005 | 50 | 248 | 2.0 | 6.0 | 0.00 | 0.00 | 0.00 | 95 | 1018.0 |
| 20260502024005 | 50 | 242 | 4.0 | 8.0 | 0.00 | 0.00 | 0.00 | 94 | 1018.2 |
| 20260502023506 | 50 | 234 | 4.0 | 8.0 | 0.00 | 0.00 | 0.00 | 94 | 1018.2 |
| 20260502023005 | 50 | 237 | 4.0 | 8.0 | 0.00 | 0.00 | 0.00 | 94 | 1018.1 |
| 20260502022505 | 50 | 253 | 1.0 | 7.0 | 0.00 | 0.00 | 0.00 | 94 | 1018.2 |
| 20260502021505 | 50 | 249 | 1.0 | 5.0 | 0.00 | 0.00 | 0.00 | 95 | 1018.3 |
| 20260502021005 | 50 | 255 | 1.0 | 3.0 | 0.00 | 0.00 | 0.00 | 95 | 1018.3 |
| 20260502020505 | 50 | 0 | 0.0 | 1.0 | 0.00 | 0.00 | 0.00 | 94 | 1018.1 |
| 20260502015505 | 50 | 236 | 1.0 | 2.0 | 0.00 | 0.00 | 0.00 | 94 | 1018.3 |
| 20260502015005 | 50 | 0 | 0.0 | 2.0 | 0.00 | 0.00 | 0.00 | 94 | 1018.4 |
| 20260502014505 | 50 | 0 | 0.0 | 2.0 | 0.00 | 0.00 | 0.00 | 94 | 1018.3 |
| 20260502014005 | 50 | 0 | 0.0 | 1.0 | 0.00 | 0.00 | 0.00 | 93 | 1018.3 |
| 20260502013506 | 50 | 0 | 0.0 | 1.0 | 0.00 | 0.00 | 0.00 | 93 | 1018.4 |
| 20260502013005 | 50 | 0 | 0.0 | 1.0 | 0.00 | 0.00 | 0.00 | 93 | 1018.4 |
| 20260502012507 | 50 | 0 | 0.0 | 1.0 | 0.00 | 0.00 | 0.00 | 93 | 1018.4 |
| 20260502011505 | 51 | 0 | 0.0 | 2.0 | 0.00 | 0.00 | 0.00 | 93 | 1018.5 |
| 20260502011005 | 51 | 236 | 1.0 | 3.0 | 0.00 | 0.00 | 0.00 | 93 | 1018.5 |
| 20260502010505 | 51 | 244 | 1.0 | 3.0 | 0.00 | 0.00 | 0.00 | 93 | 1018.6 |
| 20260502010005 | 51 | 252 | 1.0 | 3.0 | 0.00 | 0.00 | 0.00 | 93 | 1018.7 |
| 20260502005505 | 51 | 237 | 2.0 | 6.0 | 0.00 | 0.00 | 0.00 | 93 | 1018.7 |
| 20260502005006 | 51 | 235 | 2.0 | 7.0 | 0.00 | 0.00 | 0.00 | 93 | 1018.7 |
| 20260502004505 | 51 | 241 | 1.0 | 7.0 | 0.00 | 0.00 | 0.00 | 93 | 1018.8 |
| 20260502004005 | 51 | 232 | 2.0 | 7.0 | 0.00 | 0.00 | 0.00 | 93 | 1018.8 |
| 20260502003505 | 51 | 230 | 2.0 | 7.0 | 0.00 | 0.00 | 0.00 | 93 | 1018.8 |
| 20260502003005 | 51 | 246 | 1.0 | 5.0 | 0.00 | 0.00 | 0.00 | 93 | 1018.8 |
| 20260502002506 | 51 | 240 | 2.0 | 6.0 | 0.00 | 0.00 | 0.00 | 93 | 1018.9 |
| 20260502001006 | 51 | 226 | 2.0 | 6.0 | 0.00 | 0.00 | 0.00 | 93 | 1019.0 |
| 20260502000505 | 51 | 229 | 2.0 | 6.0 | 0.00 | 0.00 | 0.00 | 93 | 1019.0 |
| 20260502000005 | 51 | 241 | 4.0 | 6.0 | 0.00 | 0.00 | 0.00 | 93 | 1019.0 |
| 20260501235505 | 51 | 236 | 4.0 | 7.0 | 0.00 | 0.00 | 0.00 | 92 | 1018.9 |
| 20260501235005 | 51 | 222 | 4.0 | 7.0 | 0.00 | 0.00 | 0.00 | 92 | 1019.0 |
| 20260501234506 | 51 | 220 | 2.0 | 7.0 | 0.00 | 0.00 | 0.00 | 92 | 1019.0 |
| 20260501233506 | 51 | 219 | 2.0 | 7.0 | 0.00 | 0.00 | 0.00 | 92 | 1019.2 |
| 20260501233013 | 51 | 226 | 2.0 | 6.0 | 0.00 | 0.00 | 0.00 | 92 | 1019.2 |
| 20260501232505 | 51 | 246 | 2.0 | 6.0 | 0.00 | 0.00 | 0.00 | 91 | 1019.1 |
| 20260501232005 | 52 | 251 | 2.0 | 8.0 | 0.00 | 0.00 | 0.00 | 91 | 1019.2 |
| 20260501231505 | 52 | 237 | 2.0 | 8.0 | 0.00 | 0.00 | 0.00 | 91 | 1019.3 |
| 20260501231006 | 52 | 230 | 1.0 | 3.0 | 0.00 | 0.00 | 0.00 | 90 | 1019.3 |
| 20260501230007 | 52 | 230 | 1.0 | 5.0 | 0.00 | 0.00 | 0.00 | 90 | 1019.4 |
| 20260501225505 | 52 | 233 | 2.0 | 5.0 | 0.00 | 0.00 | 0.00 | 89 | 1019.4 |
| 20260501224505 | 53 | 216 | 1.0 | 5.0 | 0.00 | 0.00 | 0.00 | 89 | 1019.4 |
| 20260501224005 | 53 | 186 | 1.0 | 5.0 | 0.00 | 0.00 | 0.00 | 89 | 1019.5 |
| 20260501223505 | 53 | 182 | 1.0 | 5.0 | 0.00 | 0.00 | 0.00 | 89 | 1019.4 |
| 20260501223005 | 53 | 187 | 1.0 | 3.0 | 0.00 | 0.00 | 0.00 | 89 | 1019.4 |
| 20260501222005 | 53 | 187 | 1.0 | 5.0 | 0.00 | 0.00 | 0.00 | 89 | 1019.3 |
| 20260501221505 | 53 | 193 | 1.0 | 5.0 | 0.00 | 0.00 | 0.00 | 88 | 1019.3 |
| 20260501221006 | 53 | 205 | 1.0 | 3.0 | 0.00 | 0.00 | 0.00 | 88 | 1019.3 |
| 20260501220505 | 53 | 223 | 1.0 | 3.0 | 0.00 | 0.00 | 0.00 | 88 | 1019.3 |
| 20260501220006 | 53 | 226 | 1.0 | 5.0 | 0.00 | 0.00 | 0.00 | 88 | 1019.3 |
| 20260501215505 | 53 | 230 | 1.0 | 5.0 | 0.00 | 0.00 | 0.00 | 87 | 1019.3 |
| 20260501215005 | 53 | 225 | 1.0 | 5.0 | 0.00 | 0.00 | 0.00 | 87 | 1019.3 |
| 20260501214505 | 54 | 221 | 1.0 | 5.0 | 0.00 | 0.00 | 0.00 | 87 | 1019.3 |
| 20260501214005 | 54 | 217 | 1.0 | 5.0 | 0.00 | 0.00 | 0.00 | 87 | 1019.3 |
| 20260501213505 | 54 | 194 | 1.0 | 5.0 | 0.00 | 0.00 | 0.00 | 87 | 1019.3 |
| 20260501213006 | 54 | 185 | 2.0 | 5.0 | 0.00 | 0.00 | 0.00 | 87 | 1019.3 |
| 20260501212505 | 54 | 189 | 1.0 | 5.0 | 0.00 | 0.00 | 0.00 | 86 | 1019.2 |
| 20260501212005 | 54 | 220 | 1.0 | 6.0 | 0.00 | 0.00 | 0.00 | 86 | 1019.2 |
| 20260501211505 | 54 | 229 | 1.0 | 6.0 | 0.00 | 0.00 | 0.00 | 86 | 1019.2 |
| 20260501210505 | 54 | 223 | 1.0 | 3.0 | 0.00 | 0.00 | 0.00 | 86 | 1019.2 |
| 20260501210006 | 54 | 209 | 1.0 | 3.0 | 0.00 | 0.00 | 0.00 | 86 | 1019.2 |
| 20260501205005 | 54 | 191 | 2.0 | 6.0 | 0.00 | 0.00 | 0.00 | 86 | 1019.2 |
| 20260501204505 | 54 | 190 | 2.0 | 5.0 | 0.00 | 0.00 | 0.00 | 86 | 1019.2 |
| 20260501204005 | 54 | 203 | 1.0 | 5.0 | 0.00 | 0.00 | 0.00 | 86 | 1019.2 |
| 20260501203505 | 54 | 219 | 1.0 | 5.0 | 0.00 | 0.00 | 0.00 | 86 | 1019.1 |
| 20260501203005 | 54 | 227 | 1.0 | 5.0 | 0.00 | 0.00 | 0.00 | 85 | 1019.2 |
| 20260501202505 | 55 | 231 | 2.0 | 7.0 | 0.00 | 0.00 | 0.00 | 85 | 1019.2 |
| 20260501202005 | 55 | 230 | 4.0 | 7.0 | 0.00 | 0.00 | 0.00 | 84 | 1019.1 |
| 20260501201005 | 55 | 214 | 1.0 | 7.0 | 0.00 | 0.00 | 0.00 | 84 | 1019.0 |
| 20260501200506 | 55 | 209 | 1.0 | 5.0 | 0.00 | 0.00 | 0.00 | 84 | 1019.0 |
| 20260501200005 | 56 | 233 | 1.0 | 6.0 | 0.00 | 0.00 | 0.00 | 84 | 1018.9 |
| 20260501195005 | 56 | 230 | 1.0 | 5.0 | 0.00 | 0.00 | 0.00 | 83 | 1018.9 |
| 20260501194506 | 56 | 236 | 1.0 | 3.0 | 0.00 | 0.00 | 0.00 | 82 | 1018.8 |
| 20260501193505 | 57 | 243 | 2.0 | 6.0 | 0.00 | 0.00 | 0.00 | 82 | 1018.7 |
| 20260501192505 | 57 | 239 | 2.0 | 6.0 | 0.00 | 0.00 | 0.00 | 80 | 1018.7 |
| 20260501192005 | 58 | 242 | 4.0 | 7.0 | 0.00 | 0.00 | 0.00 | 80 | 1018.6 |
| 20260501191505 | 58 | 240 | 4.0 | 8.0 | 0.00 | 0.00 | 0.00 | 79 | 1018.6 |
| 20260501191005 | 58 | 238 | 4.0 | 8.0 | 0.00 | 0.00 | 0.00 | 78 | 1018.7 |
| 20260501190505 | 59 | 239 | 5.0 | 10.0 | 0.00 | 0.00 | 0.00 | 77 | 1018.7 |
| 20260501190006 | 59 | 236 | 5.0 | 10.0 | 0.00 | 0.00 | 0.00 | 76 | 1018.6 |
| 20260501185505 | 60 | 233 | 6.0 | 10.0 | 0.00 | 0.00 | 0.00 | 75 | 1018.5 |
| 20260501185005 | 60 | 234 | 6.0 | 11.0 | 0.00 | 0.00 | 0.00 | 74 | 1018.5 |
| 20260501184506 | 60 | 238 | 5.0 | 11.0 | 0.00 | 0.00 | 0.00 | 73 | 1018.4 |
| 20260501184005 | 61 | 241 | 5.0 | 8.0 | 0.00 | 0.00 | 0.00 | 72 | 1018.4 |
| 20260501183505 | 61 | 239 | 4.0 | 8.0 | 0.00 | 0.00 | 0.00 | 71 | 1018.3 |
| 20260501183005 | 62 | 234 | 4.0 | 7.0 | 0.00 | 0.00 | 0.00 | 70 | 1018.3 |
| 20260501182505 | 62 | 237 | 4.0 | 7.0 | 0.00 | 0.00 | 0.00 | 69 | 1018.3 |
| 20260501182005 | 62 | 236 | 5.0 | 9.0 | 0.00 | 0.00 | 0.00 | 68 | 1018.3 |
| 20260501181505 | 63 | 231 | 5.0 | 9.0 | 0.00 | 0.00 | 0.00 | 67 | 1018.3 |
| 20260501181006 | 64 | 232 | 5.0 | 9.0 | 0.00 | 0.00 | 0.00 | 65 | 1018.3 |
| 20260501180505 | 64 | 240 | 4.0 | 9.0 | 0.00 | 0.00 | 0.00 | 64 | 1018.3 |
| 20260501180005 | 65 | 245 | 4.0 | 8.0 | 0.00 | 0.00 | 0.00 | 62 | 1018.3 |
| 20260501175505 | 66 | 236 | 5.0 | 9.0 | 0.00 | 0.00 | 0.00 | 61 | 1018.2 |
| 20260501175005 | 65 | 217 | 4.0 | 9.0 | 0.00 | 0.00 | 0.00 | 61 | 1018.2 |
| 20260501174505 | 66 | 221 | 4.0 | 8.0 | 0.00 | 0.00 | 0.00 | 61 | 1018.2 |
| 20260501173506 | 67 | 222 | 4.0 | 11.0 | 0.00 | 0.00 | 0.00 | 60 | 1018.3 |
| 20260501173005 | 66 | 209 | 4.0 | 8.0 | 0.00 | 0.00 | 0.00 | 60 | 1018.3 |
| 20260501172505 | 66 | 219 | 5.0 | 10.0 | 0.00 | 0.00 | 0.00 | 60 | 1018.4 |
| 20260501172006 | 66 | 215 | 5.0 | 10.0 | 0.00 | 0.00 | 0.00 | 59 | 1018.4 |
| 20260501171505 | 66 | 211 | 6.0 | 11.0 | 0.00 | 0.00 | 0.00 | 58 | 1018.4 |
| 20260501171005 | 66 | 223 | 6.0 | 11.0 | 0.00 | 0.00 | 0.00 | 58 | 1018.4 |
| 20260501170005 | 66 | 194 | 5.0 | 13.0 | 0.00 | 0.00 | 0.00 | 59 | 1018.5 |
| 20260501165505 | 66 | 187 | 5.0 | 11.0 | 0.00 | 0.00 | 0.00 | 64 | 1018.6 |
| 20260501165005 | 66 | 172 | 6.0 | 11.0 | 0.00 | 0.00 | 0.00 | 65 | 1018.5 |
| 20260501164505 | 67 | 168 | 6.0 | 11.0 | 0.00 | 0.00 | 0.00 | 64 | 1018.6 |
| 20260501163505 | 67 | 181 | 6.0 | 14.0 | 0.00 | 0.00 | 0.00 | 64 | 1018.5 |
| 20260501163005 | 66 | 184 | 6.0 | 14.0 | 0.00 | 0.00 | 0.00 | 64 | 1018.4 |
| 20260501162505 | 67 | 192 | 6.0 | 13.0 | 0.00 | 0.00 | 0.00 | 63 | 1018.5 |
| 20260501161505 | 68 | 187 | 5.0 | 9.0 | 0.00 | 0.00 | 0.00 | 62 | 1018.4 |
| 20260501161005 | 68 | 192 | 5.0 | 8.0 | 0.00 | 0.00 | 0.00 | 62 | 1018.4 |
| 20260501160505 | 68 | 185 | 5.0 | 10.0 | 0.00 | 0.00 | 0.00 | 61 | 1018.4 |
| 20260501155505 | 68 | 174 | 5.0 | 10.0 | 0.00 | 0.00 | 0.00 | 63 | 1018.5 |
| 20260501154505 | 67 | 204 | 5.0 | 13.0 | 0.00 | 0.00 | 0.00 | 62 | 1018.5 |
| 20260501154005 | 67 | 219 | 5.0 | 11.0 | 0.00 | 0.00 | 0.00 | 59 | 1018.6 |
| 20260501153505 | 67 | 215 | 6.0 | 11.0 | 0.00 | 0.00 | 0.00 | 59 | 1018.6 |
| 20260501153005 | 66 | 205 | 6.0 | 13.0 | 0.00 | 0.00 | 0.00 | 58 | 1018.6 |
| 20260501152506 | 66 | 195 | 6.0 | 14.0 | 0.00 | 0.00 | 0.00 | 58 | 1018.7 |
| 20260501152005 | 67 | 191 | 6.0 | 14.0 | 0.00 | 0.00 | 0.00 | 59 | 1018.8 |
| 20260501151505 | 67 | 193 | 5.0 | 10.0 | 0.00 | 0.00 | 0.00 | 63 | 1018.8 |
| 20260501151006 | 67 | 191 | 6.0 | 11.0 | 0.00 | 0.00 | 0.00 | 60 | 1018.8 |
| 20260501150005 | 67 | 195 | 6.0 | 14.0 | 0.00 | 0.00 | 0.00 | 59 | 1018.9 |
| 20260501145505 | 68 | 195 | 6.0 | 14.0 | 0.00 | 0.00 | 0.00 | 60 | 1019.0 |